AirNav   ProFlight Series 2 Aviation Headset
 
 1060 users online  

PS80 Robbins Nest Heliport
Quakertown, Pennsylvania, USA

GOING TO QUAKERTOWN?


FAA INFORMATION EFFECTIVE 18 JUNE 2020

Location

FAA Identifier: PS80
Lat/Long: 40-22-09.3650N 075-23-49.6400W
40-22.156083N 075-23.827333W
40.3692681,-75.3971222
(estimated)
Elevation: 450 ft. / 137 m (estimated)
Variation: 11W (1986)
From city: 6 miles SW of QUAKERTOWN, PA
Time zone: UTC -4 (UTC -5 during Standard Time)
Zip code: 18054

Heliport Operations

Heliport use: Private use. Permission required prior to landing
Activation date: 04/1986
Control tower: no
ARTCC: NEW YORK CENTER
FSS: WILLIAMSPORT FLIGHT SERVICE STATION
Attendance: UNATNDD
Wind indicator: yes
Segmented circle: no

Heliport Communications

WX AWOS-3 at UKT (4 nm N): 119.475 (215-538-7610)
WX AWOS-3 at CKZ (5 nm E): 126.325 (215-257-7291)
WX ASOS at PTW (11 nm SW): 119.425 (610-495-0823)
WX ASOS at DYL (13 nm E): 118.875 (215-345-0392)
WX AWOS-3 at XLL (13 nm N): 127.875 (610-231-3111)
WX AWOS-3 at LOM (15 nm SE): 118.925 (215-646-1068)
WX ASOS at ABE (17 nm N): 126.975 (610-266-3579)

Nearby radio navigation aids

VOR radial/distance  VOR name  Freq  Var
PTWr049/11.6POTTSTOWN VORTAC116.5009W
ETXr143/18.2EAST TEXAS VOR/DME110.2009W
FJCr183/21.6ALLENTOWN VORTAC117.5010W
ARDr297/23.5YARDLEY VOR/DME108.2010W
MXEr034/29.8MODENA VORTAC113.2009W
SBJr257/32.5SOLBERG VOR/DME112.9010W
BWZr237/36.7BROADWAY VOR/DME114.2011W

 
NDB name  Hdg/Dist  Freq  Var  ID
AMBLER353/15.527512WING .. -. --.

Heliport Services

Runway Information

Helipad H1

Dimensions: 50 x 50 ft. / 15 x 15 m
Surface: asphalt
Traffic pattern: leftleft

Heliport Ownership and Management from official FAA records

Ownership: Privately-owned
Owner: RONALD E. ROBBINS, JR.
205 ROCKY DALE ROAD
GREEN LANE, PA 18054
Phone 215-257-9593

Heliport Operational Statistics

Aircraft based on the field: 1
Helicopters: 1
    

Additional Remarks

FOR CD CTC PHILADELPHIA APCH AT 800-354-9884.

Instrument Procedures

There are no published instrument procedures at PS80.

Some nearby airports with instrument procedures:

KUKT - Quakertown Airport (4 nm N)
KCKZ - Pennridge Airport (5 nm E)
N10 - Perkiomen Valley Airport (10 nm S)
KPTW - Heritage Field Airport (11 nm SW)
KDYL - Doylestown Airport (13 nm E)
KXLL - Allentown Queen City Municipal Airport (13 nm N)
N47 - Pottstown Municipal Airport (14 nm SW)
KLOM - Wings Field Airport (15 nm SE)
KABE - Lehigh Valley International Airport (17 nm N)
 
Loc | Ops | Rwys | IFR | FBO | Links
Com | Nav | Svcs | Stats | Notes
Area around PS80 (Robbins Nest Heliport)
 
Road maps at: MapQuest Bing Google
 
Aerial photo
No photo
 
Sectional chart

 
Airport distance calculator
Flying to Robbins Nest Heliport? Find the distance to fly.

From to PS80

Sunrise and sunset
Times for 12-Jul-2020
 Local
(UTC-4)
 Zulu
(UTC)
Morning civil twilight05:1109:11
Sunrise05:4409:44
Sunset20:3100:31
Evening civil twilight21:0301:03

Current date and time
Zulu (UTC)  12-Jul-2020 19:19:20
Local (UTC-4)  12-Jul-2020 15:19:20
 
METAR
KUKT 
4nm N 
121855Z AUTO 22007KT 10SM CLR 31/18 A2976 RMK A01
KCKZ 
5nm E 
121855Z AUTO 26006KT 10SM SCT060 BKN095 29/17 A2977 RMK AO2
KPTW 
11nm SW 
121854Z AUTO 21007KT 8SM FEW060 BKN100 29/17 A2977 RMK AO2 SLP077 T02940167
KXLL 
13nm N 
121855Z AUTO 25006KT 10SM SCT050 SCT070 30/18 A2976 RMK AO2
KDYL 
13nm E 
121854Z AUTO 24006KT 10SM FEW055 FEW095 32/16 A2975 RMK AO2 SLP067 T03220161
KLOM 
15nm SE 
121855Z AUTO 24010KT 10SM BKN060 31/18 A2976 RMK AO2 P0001 T03110178
KABE 
17nm N 
121851Z 23011G18KT 10SM CLR 30/17 A2974 RMK AO2 SLP068 T03000172
TAF
KABE 
17nm N 
121726Z 1218/1318 25008KT P6SM SCT050 BKN120 FM122000 24008KT P6SM VCSH BKN045 FM122200 24005KT P6SM -SHRA VCTS BKN040CB FM130100 VRB03KT P6SM -SHRA BKN045 FM130700 VRB03KT P6SM BKN060 FM131400 29007KT P6SM BKN200
NOTAMs
Click for the latest NOTAMs
NOTAMs are issued by the DoD/FAA and will open in a separate window not controlled by AirNav.

 

 
 

Would you like to see your business listed on this page?

 If your business provides an interesting product or service to pilots, flight crews, aircraft, or users of the Robbins Nest Heliport, you should consider listing it here.  To start the listing process, click on the button below
 
Add a business
 

Other Pages about Robbins Nest Heliport

Update a link
 
Copyright © AirNav, LLC. All rights reserved. Privacy Policy  Contact